sat.trackr.live / text

‹ back to catalog

STARLINK-37242

NORAD 68728 · 2026-082A

PAYLOAD ACTIVE UNKNOWN

§ Identity

Operator
Country
US
Launch date
2026-04-15
Launch site
AFWTR
Launch vehicle
Mass (kg)
RCS (m²)

Purposes: comms

External: N2YO · Heavens-Above · Gunter

§ Orbital elements

Epoch: 2026-09-18T23:46:54.919488Z

Period
93.91 min
Inclination
97.2868°
Eccentricity
0.0001897
Mean motion
15.33458955 rev/d
Perigee alt
464.2 km
Apogee alt
466.8 km
Semi-major
6,843.6 km
B*
5.8651e-4
RAAN
124.1532°
Arg perigee
71.1215°
Mean anomaly
289.0234°
Rev number
2,407

§ Raw data

STARLINK-372421 68728U 26082A   26261.99091342  .00018916  00000+0  58651-3 0  99952 68728  97.2868 124.1532 0001897  71.1215 289.0234 15.33458955 24072

JSON: /api/v1/satellites/68728 · /tle

For live sub-satellite position, see the globe view (requires WebGL).

§ Visibility from observer

Set your observer location to see the next 7 days of passes ≥ 10°. The values pass through the URL so the page stays shareable.

No JS? Fill the form by hand. The geolocation button needs JavaScript.